Weather History for Maple Lake, MN

Change the Weather History Date:

Tuesday, October 8, 2013

  Actual Average (KSTC) Record (KSTC)
Temperature  
Mean Temperature 63 °F 49 °F  
Max Temperature 77 °F 61 °F 84 °F (2010)
Min Temperature 49 °F 38 °F 17 °F (2000)
Degree Days  
Heating Degree Days 2 16  
Month to date heating degree days 118  
Since 1 July heating degree days 404  
Cooling Degree Days 0 0  
Month to date cooling degree days 0  
Year to date cooling degree days 463  
Growing Degree Days 13 (Base 50)    
Moisture  
Dew Point 46 °F    
Average Humidity 58    
Maximum Humidity 83    
Minimum Humidity 34    
Precipitation  
Precipitation 0.00 in 0.09 in 0.81 in (1970)
Month to date precipitation 0.77  
Year to date precipitation 23.81  
Snow  
Snow 0.00 in 0.00 in 0.00 in ()
Month to date snowfall 0.0  
Since 1 July snowfall T  
Since 1 September snowfall T  
Snow Depth -    
Sea Level Pressure  
Sea Level Pressure 29.86 in    
Wind  
Wind Speed 6 mph (SSE)    
Max Wind Speed 17 mph    
Max Gust Speed 28 mph    
Visibility 10 miles    
Events      
T = Trace of Precipitation, MM = Missing Value Source: NWS Daily Summary

Daily Weather History Graph

Daily Weather History Graph

Search for Another Location

Airport:

Trip Planner

Search our weather history database for the weather conditions in past years. The results will help you decide how hot, cold, wet, or windy it might be!

Date:

Astronomy

Oct. 08, 2013 Rise Set
Actual Time 7:23 AM CDT 6:42 PM CDT
Civil Twilight 6:53 AM CDT 7:12 PM CDT
Nautical Twilight 6:19 AM CDT 7:46 PM CDT
Astronomical Twilight 5:45 AM CDT 8:20 PM CDT
Moon 11:28 AM CDT (10/8) 9:09 PM CDT (10/8)
Length of Visible Light 12h 18m
Length of Day
11h 19m
Waxing Crescent, 16% of the Moon is Illuminated
Oct 8
Waxing Crescent
Oct 11
First Quarter
Oct 18
Full
Oct 26
Last Quarter
Nov 3
New

Hourly Weather History & Observations

Time (CDT) Temp. Dew Point Humidity Pressure Visibility Wind Dir Wind Speed Gust Speed Precip Events Conditions
12:16 AM 50.0 °F 45.1 °F 83% 29.95 in 10.0 mi Calm Calm - N/A   Clear
12:36 AM 49.8 °F 44.8 °F 83% 29.95 in 10.0 mi Calm Calm - N/A   Clear
12:56 AM 49.6 °F 44.8 °F 83% 29.95 in 10.0 mi SSE 3.5 mph - N/A   Clear
1:16 AM 49.5 °F 44.6 °F 83% 29.95 in 10.0 mi SSE 3.5 mph - N/A   Clear
1:36 AM 50.0 °F 44.6 °F 82% 29.95 in 10.0 mi SSE 3.5 mph - N/A   Clear
1:56 AM 49.8 °F 44.4 °F 82% 29.95 in 10.0 mi SSE 3.5 mph - N/A   Clear
2:16 AM 49.6 °F 44.4 °F 82% 29.94 in 10.0 mi SSE 3.5 mph - N/A   Clear
2:36 AM 50.0 °F 44.2 °F 81% 29.93 in 10.0 mi SSE 4.6 mph - N/A   Clear
2:56 AM 50.7 °F 44.6 °F 80% 29.93 in 10.0 mi SSE 4.6 mph - N/A   Clear
3:16 AM 50.9 °F 45.1 °F 81% 29.92 in 10.0 mi SSE 4.6 mph - N/A   Clear
3:36 AM 51.1 °F 45.5 °F 81% 29.91 in 10.0 mi SSE 4.6 mph - N/A   Clear
3:56 AM 51.3 °F 45.5 °F 81% 29.91 in 10.0 mi SSE 5.8 mph - N/A   Clear
4:16 AM 51.6 °F 45.5 °F 80% 29.91 in 10.0 mi SSE 4.6 mph - N/A   Clear
4:36 AM 51.8 °F 45.5 °F 79% 29.91 in 10.0 mi SSE 4.6 mph - N/A   Clear
4:56 AM 51.4 °F 45.7 °F 81% 29.91 in 10.0 mi SSE 4.6 mph - N/A   Clear
5:16 AM 51.3 °F 45.5 °F 81% 29.90 in 10.0 mi SSE 5.8 mph - N/A   Clear
5:36 AM 51.4 °F 45.5 °F 80% 29.90 in 10.0 mi SSE 5.8 mph - N/A   Clear
5:56 AM 51.8 °F 45.5 °F 79% 29.89 in 10.0 mi SSE 5.8 mph - N/A   Clear
6:16 AM 51.4 °F 45.5 °F 80% 29.88 in 10.0 mi SSE 6.9 mph - N/A   Clear
6:36 AM 51.3 °F 45.7 °F 81% 29.88 in 10.0 mi SSE 5.8 mph - N/A   Clear
6:56 AM 51.3 °F 45.5 °F 81% 29.88 in 10.0 mi SSE 4.6 mph - N/A   Clear
7:16 AM 51.3 °F 45.3 °F 80% 29.88 in 10.0 mi SSE 5.8 mph - N/A   Clear
7:36 AM 51.8 °F 45.0 °F 77% 29.88 in 10.0 mi SSE 5.8 mph - N/A   Clear
7:56 AM 52.3 °F 44.8 °F 75% 29.88 in 10.0 mi SSE 6.9 mph - N/A   Clear
8:16 AM 53.2 °F 45.0 °F 73% 29.87 in 10.0 mi SSE 6.9 mph - N/A   Clear
8:36 AM 54.7 °F 45.1 °F 70% 29.87 in 10.0 mi SSE 9.2 mph - N/A   Clear
8:56 AM 56.3 °F 45.5 °F 67% 29.87 in 10.0 mi SSE 8.1 mph - N/A   Clear
9:16 AM 58.1 °F 46.0 °F 64% 29.86 in 10.0 mi South 8.1 mph - N/A   Clear
9:36 AM 60.1 °F 46.4 °F 61% 29.86 in 10.0 mi South 9.2 mph 16.1 mph N/A   Clear
9:56 AM 61.3 °F 46.6 °F 58% 29.86 in 10.0 mi South 10.4 mph 18.4 mph N/A   Clear
10:16 AM 62.8 °F 46.8 °F 56% 29.86 in 10.0 mi South 11.5 mph 17.3 mph N/A   Clear
10:36 AM 63.9 °F 46.9 °F 54% 29.86 in 10.0 mi South 10.4 mph 16.1 mph N/A   Clear
10:56 AM 65.5 °F 47.5 °F 52% 29.85 in 10.0 mi SSE 11.5 mph 19.6 mph N/A   Clear
11:16 AM 66.9 °F 47.5 °F 50% 29.85 in 10.0 mi South 8.1 mph 21.9 mph N/A   Clear
11:36 AM 68.0 °F 47.5 °F 48% 29.84 in 10.0 mi South 11.5 mph 19.6 mph N/A   Clear
11:56 AM 70.3 °F 47.8 °F 45% 29.83 in 10.0 mi South 9.2 mph 21.9 mph N/A   Clear
12:16 PM 70.9 °F 47.7 °F 44% 29.83 in 10.0 mi South 12.7 mph 21.9 mph N/A   Clear
12:36 PM 72.0 °F 47.3 °F 41% 29.82 in 10.0 mi South 13.8 mph 21.9 mph N/A   Clear
12:56 PM 72.3 °F 47.8 °F 42% 29.81 in 10.0 mi South 11.5 mph 23.0 mph N/A   Clear
1:16 PM 74.3 °F 48.7 °F 40% 29.81 in 10.0 mi South 10.4 mph 20.7 mph N/A   Clear
1:36 PM 75.0 °F 47.8 °F 38% 29.80 in 10.0 mi South 15.0 mph 23.0 mph N/A   Clear
1:56 PM 75.6 °F 48.0 °F 38% 29.80 in 10.0 mi South 10.4 mph 25.3 mph N/A   Clear
2:16 PM 76.3 °F 48.4 °F 37% 29.80 in 10.0 mi South 12.7 mph 18.4 mph N/A   Clear
2:36 PM 77.2 °F 48.0 °F 36% 29.80 in 10.0 mi South 10.4 mph 24.2 mph N/A   Clear
2:56 PM 74.7 °F 47.5 °F 38% 29.80 in 10.0 mi South 17.3 mph 26.5 mph N/A   Clear
3:16 PM 77.2 °F 48.2 °F 36% 29.79 in 10.0 mi South 11.5 mph 19.6 mph N/A   Clear
3:36 PM 76.6 °F 47.8 °F 36% 29.78 in 10.0 mi South 12.7 mph 27.6 mph N/A   Clear
3:56 PM 76.5 °F 47.7 °F 36% 29.78 in 10.0 mi South 10.4 mph 24.2 mph N/A   Clear
4:16 PM 75.9 °F 47.1 °F 36% 29.78 in 10.0 mi South 11.5 mph 21.9 mph N/A   Clear
4:36 PM 76.3 °F 47.3 °F 36% 29.78 in 10.0 mi South 10.4 mph 23.0 mph N/A   Clear
4:56 PM 76.1 °F 47.3 °F 36% 29.78 in 10.0 mi SSE 9.2 mph 18.4 mph N/A   Clear
5:16 PM 74.8 °F 47.1 °F 37% 29.78 in 10.0 mi South 8.1 mph 18.4 mph N/A   Clear
5:36 PM 75.9 °F 45.9 °F 34% 29.78 in 10.0 mi South 12.7 mph 24.2 mph N/A   Clear
5:56 PM 74.7 °F 46.2 °F 36% 29.78 in 10.0 mi South 9.2 mph 21.9 mph N/A   Clear
6:16 PM 72.9 °F 45.3 °F 37% 29.78 in 10.0 mi SSE 10.4 mph 21.9 mph N/A   Clear
6:36 PM 71.8 °F 45.0 °F 38% 29.78 in 10.0 mi South 8.1 mph 17.3 mph N/A   Clear
6:56 PM 70.7 °F 45.7 °F 41% 29.80 in 10.0 mi South 6.9 mph - N/A   Clear
7:16 PM 69.8 °F 46.0 °F 43% 29.81 in 10.0 mi South 6.9 mph - N/A   Clear
7:36 PM 68.9 °F 46.4 °F 44% 29.82 in 10.0 mi South 5.8 mph - N/A   Clear
7:56 PM 68.2 °F 46.6 °F 46% 29.84 in 10.0 mi South 4.6 mph - N/A   Clear
8:16 PM 67.1 °F 46.8 °F 48% 29.85 in 10.0 mi South 4.6 mph - N/A   Clear
8:36 PM 66.7 °F 46.8 °F 49% 29.85 in 10.0 mi South 5.8 mph - N/A   Clear
8:56 PM 67.3 °F 46.8 °F 48% 29.86 in 10.0 mi South 6.9 mph - N/A   Clear
9:16 PM 66.9 °F 46.8 °F 48% 29.87 in 10.0 mi South 5.8 mph - N/A   Clear
9:36 PM 65.7 °F 46.9 °F 51% 29.87 in 10.0 mi South 5.8 mph - N/A   Clear
9:56 PM 64.4 °F 46.9 °F 53% 29.87 in 10.0 mi South 5.8 mph - N/A   Clear
10:16 PM 63.5 °F 47.3 °F 56% 29.87 in 10.0 mi South 5.8 mph - N/A   Clear
10:36 PM 63.5 °F 47.3 °F 56% 29.88 in 10.0 mi South 5.8 mph - N/A   Clear
10:56 PM 63.0 °F 47.5 °F 57% 29.88 in 10.0 mi South 5.8 mph - N/A   Clear
11:16 PM 62.6 °F 47.5 °F 58% 29.89 in 10.0 mi South 6.9 mph - N/A   Clear
11:36 PM 61.9 °F 47.8 °F 60% 29.90 in 10.0 mi South 4.6 mph - N/A   Clear
11:56 PM 61.7 °F 48.2 °F 61% 29.90 in 10.0 mi South 4.6 mph - N/A   Clear